EW4729 Weather Reports


Display with metric or nautical units.
time (UTC)temp
F
wind
direction
speed
MPH
gust
MPH
rain 1hr
in
rain 24hr
in
rain mn
in
humidity
%
barometer
mb
20260509192053 89 327 1.0 11.0 0.00 0.00 0.00 66 1009.5
20260509191601 89 250 6.0 11.0 0.00 0.00 0.00 67 1009.5
20260509191052 89 251 3.0 9.0 0.00 0.00 0.00 66 1009.7
20260509190552 89 265 3.0 9.0 0.00 0.00 0.00 68 1009.8
20260509190057 89 245 4.0 9.0 0.00 0.00 0.00 68 1009.9
20260509185554 88 257 2.0 9.0 0.00 0.00 0.00 70 1009.9
20260509185053 88 259 3.0 10.0 0.00 0.00 0.00 67 1010.0
20260509184608 88 267 4.0 10.0 0.00 0.00 0.00 69 1010.0
20260509184052 88 254 5.0 10.0 0.00 0.00 0.00 68 1010.0
20260509183553 88 224 5.0 10.0 0.00 0.00 0.00 68 1010.1
20260509183059 88 248 2.0 10.0 0.00 0.00 0.00 67 1010.2
20260509182555 88 263 5.0 9.0 0.00 0.00 0.00 69 1010.3
20260509182054 88 227 3.0 9.0 0.00 0.00 0.00 71 1010.3
20260509181621 87 198 2.0 9.0 0.00 0.00 0.00 70 1010.4
20260509181053 87 209 3.0 9.0 0.00 0.00 0.00 70 1010.6
20260509180555 87 231 3.0 8.0 0.00 0.00 0.00 71 1010.7
20260509175553 86 182 1.0 6.0 0.00 0.00 0.00 75 1010.8
20260509175053 86 179 3.0 6.0 0.00 0.00 0.00 75 1010.8
20260509174559 86 140 2.0 8.0 0.00 0.00 0.00 74 1010.8
20260509174055 85 179 3.0 8.0 0.00 0.00 0.00 75 1010.9
20260509173552 85 0 3.0 7.0 0.00 0.00 0.00 74 1011.0
20260509173103 85 266 2.0 7.0 0.00 0.00 0.00 75 1011.0
20260509172553 85 0 4.0 7.0 0.00 0.00 0.00 76 1011.1
20260509172055 84 258 0.0 0.0 0.00 0.00 0.00 78 1011.2
20260509171556 84 0 0.0 0.0 0.00 0.00 0.00 79 1011.3
20260509171052 83 0 0.0 2.0 0.00 0.00 0.00 80 1011.4
20260509170553 83 0 0.0 2.0 0.00 0.00 0.00 79 1011.3
20260509170055 83 0 0.0 4.0 0.00 0.00 0.00 79 1011.3
20260509165553 83 0 0.0 4.0 0.00 0.00 0.00 79 1011.3
20260509165056 83 191 1.0 4.0 0.00 0.00 0.00 80 1011.3
20260509164553 83 0 0.0 0.0 0.00 0.00 0.00 80 1011.4
20260509164052 83 0 0.0 3.0 0.00 0.00 0.00 80 1011.4
20260509163553 83 0 0.0 3.0 0.00 0.00 0.00 80 1011.3
20260509163054 83 0 1.0 3.0 0.00 0.00 0.00 81 1011.3
20260509162557 82 0 0.0 4.0 0.00 0.00 0.00 80 1011.1
20260509162055 82 0 0.0 4.0 0.00 0.00 0.00 81 1011.2
20260509161557 82 336 0.0 4.0 0.00 0.00 0.00 82 1011.0
20260509161052 82 0 1.0 4.0 0.00 0.00 0.00 81 1010.9
20260509160555 82 251 0.0 5.0 0.00 0.00 0.00 82 1010.9
20260509160055 81 0 0.0 5.0 0.00 0.00 0.00 83 1010.9
20260509155553 81 250 0.0 4.0 0.00 0.00 0.00 84 1011.0
20260509155052 81 0 0.0 3.0 0.00 0.00 0.00 84 1011.1
20260509154559 81 0 0.0 3.0 0.00 0.00 0.00 84 1011.1
20260509154053 81 0 0.0 1.0 0.00 0.00 0.00 84 1011.1
20260509153553 80 0 0.0 3.0 0.00 0.00 0.00 85 1011.2
20260509153059 80 0 0.0 4.0 0.00 0.00 0.00 85 1011.1
20260509152553 80 0 2.0 4.0 0.00 0.00 0.00 86 1010.9
20260509152056 80 0 0.0 4.0 0.00 0.00 0.00 87 1011.1
20260509151605 80 0 1.0 8.0 0.00 0.00 0.00 88 1011.0
20260509151053 79 235 3.0 8.0 0.00 0.00 0.00 88 1011.1
20260509150553 79 236 0.0 7.0 0.00 0.00 0.00 91 1011.0
20260509150100 79 250 2.0 7.0 0.00 0.00 0.00 91 1011.1
20260509145553 78 224 2.0 7.0 0.00 0.00 0.00 92 1011.0
20260509145053 78 236 1.0 3.0 0.00 0.00 0.00 93 1010.8
20260509144611 77 0 0.0 5.0 0.00 0.00 0.00 93 1010.6
20260509144055 77 0 1.0 5.0 0.00 0.00 0.00 94 1010.6
20260509143553 77 148 0.0 3.0 0.00 0.00 0.00 94 1010.5
20260509143124 77 0 0.0 0.0 0.00 0.00 0.00 94 1010.3
20260509142553 77 0 0.0 0.0 0.00 0.00 0.00 94 1010.3
20260509142055 76 0 0.0 0.0 0.00 0.00 0.00 95 1010.3
20260509141558 76 0 0.0 3.0 0.00 0.00 0.00 95 1010.2
20260509141052 76 0 0.0 4.0 0.00 0.00 0.00 95 1010.0
20260509140552 76 128 2.0 4.0 0.00 0.00 0.00 95 1010.2
20260509140107 76 123 0.0 2.0 0.00 0.00 0.00 95 1010.2
20260509135551 76 0 0.0 3.0 0.00 0.00 0.00 95 1010.1
20260509135057 76 123 1.0 6.0 0.00 0.00 0.00 95 1010.1
20260509134613 76 146 2.0 7.0 0.00 0.00 0.00 95 1010.2
20260509134051 75 173 4.0 7.0 0.00 0.00 0.00 95 1010.3
20260509133554 75 184 3.0 6.0 0.00 0.00 0.00 95 1010.5
20260509133108 75 191 3.0 7.0 0.00 0.00 0.00 95 1010.6
20260509132552 75 200 2.0 8.0 0.00 0.00 0.00 95 1011.0
20260509132055 75 191 5.0 9.0 0.00 0.00 0.00 95 1010.8
20260509131610 75 178 5.0 9.0 0.00 0.00 0.00 95 1010.7
20260509131053 75 186 5.0 9.0 0.00 0.00 0.00 95 1010.8
20260509130551 75 188 4.0 6.0 0.00 0.00 0.00 95 1011.0
20260509130059 75 198 3.0 5.0 0.00 0.00 0.00 95 1011.1
20260509125554 75 182 2.0 5.0 0.00 0.00 0.00 95 1011.1
20260509125052 75 0 0.0 0.0 0.00 0.00 0.00 95 1011.1
20260509124552 75 0 0.0 0.0 0.00 0.00 0.00 95 1011.1
20260509124053 75 0 0.0 0.0 0.00 0.00 0.00 95 1011.2
20260509123555 75 0 0.0 0.0 0.00 0.00 0.00 95 1011.2
20260509123120 75 0 0.0 0.0 0.00 0.00 0.00 95 1011.5
20260509122554 75 0 0.0 0.0 0.00 0.00 0.00 95 1011.5
20260509122054 75 0 0.0 0.0 0.00 0.00 0.00 95 1011.6
20260509121610 75 0 0.0 0.0 0.00 0.00 0.00 95 1011.3
20260509121053 75 0 0.0 0.0 0.00 0.00 0.00 95 1011.2
20260509120553 75 0 0.0 0.0 0.00 0.00 0.00 95 1011.2
20260509120112 75 0 0.0 0.0 0.00 0.00 0.00 95 1011.3
20260509115552 75 0 0.0 0.0 0.00 0.00 0.00 95 1011.1
20260509115054 75 0 0.0 0.0 0.00 0.00 0.00 95 1010.9
20260509114558 75 0 0.0 0.0 0.00 0.00 0.00 95 1010.7
20260509114056 75 0 0.0 0.0 0.00 0.00 0.00 95 1010.4
20260509113555 75 0 0.0 0.0 0.00 0.00 0.00 95 1010.4
20260509113055 75 0 0.0 0.0 0.00 0.00 0.00 95 1010.6
20260509112552 75 0 0.0 0.0 0.00 0.00 0.00 95 1010.7
20260509112051 75 0 0.0 0.0 0.00 0.00 0.00 95 1010.8
20260509111604 75 0 0.0 0.0 0.00 0.00 0.00 95 1010.9
20260509111052 75 0 0.0 0.0 0.00 0.00 0.00 95 1010.8
20260509110551 75 0 0.0 0.0 0.00 0.00 0.00 95 1010.7
20260509105551 75 0 0.0 0.0 0.00 0.00 0.00 95 1010.7
20260509105051 75 0 0.0 0.0 0.00 0.00 0.00 95 1010.7
20260509104553 75 0 0.0 0.0 0.00 0.00 0.00 95 1010.6
20260509104052 75 0 0.0 0.0 0.00 0.00 0.00 95 1010.6
20260509103551 75 0 0.0 0.0 0.00 0.00 0.00 95 1010.4
20260509103102 75 0 0.0 0.0 0.00 0.00 0.00 95 1010.5
20260509102551 75 0 0.0 0.0 0.00 0.00 0.00 95 1010.4
20260509102054 75 0 0.0 0.0 0.00 0.00 0.00 95 1010.3
20260509101620 75 0 0.0 0.0 0.00 0.00 0.00 95 1010.2
20260509101050 75 0 0.0 0.0 0.00 0.00 0.00 95 1010.1
20260509100554 75 0 0.0 0.0 0.00 0.00 0.00 95 1010.1
20260509100059 75 0 0.0 0.0 0.00 0.00 0.00 95 1010.1
20260509095553 75 0 0.0 0.0 0.00 0.00 0.00 95 1010.2
20260509095052 75 0 0.0 0.0 0.00 0.00 0.00 94 1010.3
20260509094604 75 0 0.0 0.0 0.00 0.00 0.00 95 1010.4
20260509094051 75 0 0.0 0.0 0.00 0.00 0.00 94 1010.3
20260509093552 75 0 0.0 0.0 0.00 0.00 0.00 95 1010.2
20260509093107 75 0 0.0 0.0 0.00 0.00 0.00 94 1010.1
20260509092551 75 0 0.0 0.0 0.00 0.00 0.00 94 1010.0
20260509092053 75 0 0.0 3.0 0.00 0.00 0.00 94 1010.0
20260509091606 75 0 0.0 3.0 0.00 0.00 0.00 94 1009.9
20260509091053 75 0 0.0 3.0 0.00 0.00 0.00 94 1010.0
20260509090553 75 0 0.0 6.0 0.00 0.00 0.00 94 1010.0
20260509085552 75 141 0.0 4.0 0.00 0.00 0.00 94 1010.0
20260509085052 75 0 0.0 4.0 0.00 0.00 0.00 94 1010.0
20260509084601 75 0 0.0 2.0 0.00 0.00 0.00 94 1009.9
20260509084053 75 0 0.0 2.0 0.00 0.00 0.00 94 1009.9
20260509083552 75 0 0.0 2.0 0.00 0.00 0.00 94 1010.1
20260509083104 75 0 0.0 2.0 0.00 0.00 0.00 94 1010.3
20260509082554 75 0 0.0 2.0 0.00 0.00 0.00 94 1010.3
20260509082053 75 0 0.0 2.0 0.00 0.00 0.00 94 1010.2
20260509081611 75 171 1.0 2.0 0.00 0.00 0.00 94 1010.2
20260509081052 75 0 0.0 5.0 0.00 0.00 0.00 94 1010.1
20260509080552 75 0 0.0 5.0 0.00 0.00 0.00 94 1010.1
20260509080056 75 178 1.0 6.0 0.00 0.00 0.00 94 1010.0
20260509075552 75 0 2.0 7.0 0.00 0.00 0.00 94 1010.0
20260509075056 75 186 3.0 7.0 0.00 0.00 0.00 94 1010.2
20260509074559 75 170 3.0 7.0 0.00 0.00 0.00 94 1010.2
20260509074051 74 181 1.0 5.0 0.00 0.00 0.00 94 1010.3
20260509073557 74 177 0.0 7.0 0.00 0.00 0.00 94 1010.1
20260509073107 74 178 3.0 7.0 0.00 0.00 0.00 94 1010.0
20260509072555 74 155 1.0 6.0 0.00 0.00 0.00 94 1010.0
20260509072055 74 0 2.0 10.0 0.00 0.00 0.00 94 1010.2
20260509071558 74 192 2.0 10.0 0.00 0.00 0.00 94 1010.2
20260509071051 74 168 3.0 9.0 0.00 0.00 0.00 94 1010.3
20260509070551 74 181 4.0 8.0 0.00 0.00 0.00 94 1010.1
20260509070056 74 197 4.0 9.0 0.00 0.00 0.00 93 1010.0
20260509065550 74 163 4.0 9.0 0.00 0.00 0.00 93 1010.0
20260509065054 74 138 3.0 7.0 0.00 0.00 0.00 93 1010.0
20260509064611 74 162 3.0 10.0 0.00 0.00 0.00 93 1010.0
20260509064052 74 203 4.0 10.0 0.00 0.00 0.00 93 1009.9
20260509063551 74 196 3.0 9.0 0.00 0.00 0.00 93 1009.9
20260509063057 74 146 3.0 9.0 0.00 0.00 0.00 93 1010.1
20260509062554 74 159 2.0 9.0 0.00 0.00 0.00 93 1010.1
20260509062051 74 152 4.0 9.0 0.00 0.00 0.00 93 1010.0
20260509061559 74 146 2.0 7.0 0.00 0.00 0.00 93 1010.2
20260509061056 74 140 1.0 7.0 0.00 0.00 0.00 93 1010.3
20260509060552 74 0 1.0 7.0 0.00 0.00 0.00 93 1010.5
20260509060054 74 0 0.0 5.0 0.00 0.00 0.00 93 1010.7
20260509055552 74 0 1.0 5.0 0.00 0.00 0.00 93 1010.8
20260509055057 74 157 1.0 4.0 0.00 0.00 0.00 93 1010.8
20260509054603 74 140 0.0 5.0 0.00 0.00 0.00 93 1010.8
20260509054050 74 0 1.0 5.0 0.00 0.00 0.00 92 1010.7
20260509053551 74 163 2.0 5.0 0.00 0.00 0.00 92 1010.8
20260509053110 74 159 1.0 5.0 0.00 0.00 0.00 92 1010.9
20260509052555 74 141 1.0 5.0 0.00 0.00 0.00 92 1010.9
20260509052055 74 0 0.0 4.0 0.00 0.00 0.00 92 1010.9
20260509051558 74 0 0.0 4.0 0.00 0.00 0.00 92 1010.8
20260509051054 74 0 0.0 7.0 0.00 0.00 0.00 92 1010.9
20260509050556 74 0 1.0 7.0 0.00 0.00 0.00 92 1010.9
20260509050056 74 143 0.0 4.0 0.00 0.00 0.00 92 1010.8
20260509045553 74 162 1.0 7.0 0.00 0.00 0.00 92 1010.7
20260509045052 74 0 1.0 7.0 0.00 0.00 0.00 92 1010.7
20260509044554 74 0 0.0 5.0 0.00 0.00 0.00 92 1010.6
20260509044054 74 133 0.0 4.0 0.00 0.00 0.00 92 1010.7
20260509043551 74 0 0.0 6.0 0.00 0.00 0.00 92 1010.7
20260509043054 74 0 0.0 6.0 0.00 0.00 0.00 92 1010.5
20260509042552 74 0 1.0 6.0 0.00 0.00 0.00 92 1010.6
20260509042056 74 130 0.0 4.0 0.00 0.00 0.00 92 1010.5
20260509041617 74 125 0.0 3.0 0.00 0.00 0.00 91 1010.4
20260509041052 74 0 0.0 4.0 0.00 0.00 0.00 91 1010.5
20260509040557 74 0 0.0 4.0 0.00 0.00 0.00 91 1010.4
20260509040055 74 0 0.0 3.0 0.00 0.00 0.00 91 1010.5
20260509035554 74 0 0.0 4.0 0.00 0.00 0.00 91 1010.5
20260509035055 74 0 0.0 4.0 0.00 0.00 0.00 91 1010.6
20260509034553 74 0 0.0 4.0 0.00 0.00 0.00 91 1010.6
20260509034054 74 111 0.0 4.0 0.00 0.00 0.00 91 1010.6
20260509033554 74 0 0.0 4.0 0.00 0.00 0.00 91 1010.5
20260509033053 74 113 0.0 3.0 0.00 0.00 0.00 91 1010.4
20260509032554 74 0 0.0 3.0 0.00 0.00 0.00 91 1010.5
20260509032055 74 0 0.0 3.0 0.00 0.00 0.00 91 1010.3
20260509031555 75 0 0.0 3.0 0.00 0.00 0.00 91 1010.5
20260509031058 74 0 0.0 3.0 0.00 0.00 0.00 91 1010.3
20260509030554 75 109 0.0 4.0 0.00 0.00 0.00 91 1010.3
20260509030056 75 0 0.0 5.0 0.00 0.00 0.00 91 1010.1
20260509025553 74 0 1.0 5.0 0.00 0.00 0.00 91 1009.9
20260509025053 75 128 1.0 6.0 0.00 0.00 0.00 91 1009.9
20260509024551 75 0 1.0 6.0 0.00 0.00 0.00 91 1010.0
20260509024053 75 131 1.0 6.0 0.00 0.00 0.00 91 1009.9
20260509023553 75 0 1.0 7.0 0.00 0.00 0.00 91 1010.0
20260509023107 75 118 3.0 7.0 0.00 0.00 0.00 90 1009.9
20260509022552 75 0 0.0 6.0 0.00 0.00 0.00 90 1009.8
20260509022052 75 115 1.0 6.0 0.00 0.00 0.00 90 1010.0
20260509021555 75 115 1.0 6.0 0.00 0.00 0.00 90 1009.8
20260509021052 75 108 1.0 6.0 0.00 0.00 0.00 90 1009.8
20260509020552 75 107 0.0 6.0 0.00 0.00 0.00 90 1009.9
20260509020059 75 0 1.0 6.0 0.00 0.00 0.00 90 1009.6
20260509015554 75 138 0.0 6.0 0.00 0.00 0.00 90 1009.6
20260509015055 75 0 1.0 6.0 0.00 0.00 0.00 90 1009.5
20260509014553 75 0 2.0 6.0 0.00 0.00 0.00 90 1009.5
20260509014052 75 0 0.0 4.0 0.00 0.00 0.00 90 1009.5
20260509013554 75 101 1.0 8.0 0.00 0.00 0.00 90 1009.5
20260509013055 75 108 1.0 9.0 0.00 0.00 0.00 90 1009.4
20260509012553 75 86 1.0 9.0 0.00 0.00 0.00 90 1009.3
20260509012056 75 86 1.0 9.0 0.00 0.00 0.00 90 1009.2
20260509011557 75 109 2.0 7.0 0.00 0.00 0.00 89 1009.3
20260509011052 75 94 1.0 7.0 0.00 0.00 0.00 89 1009.2
20260509010552 75 122 0.0 4.0 0.00 0.00 0.00 89 1009.3
20260509010055 76 105 2.0 6.0 0.00 0.00 0.00 89 1009.4
20260509005552 76 102 1.0 6.0 0.00 0.00 0.00 89 1009.3
20260509005052 76 133 1.0 6.0 0.00 0.00 0.00 88 1009.3
20260509004555 76 114 1.0 6.0 0.00 0.00 0.00 88 1009.0
20260509004052 76 124 1.0 5.0 0.00 0.00 0.00 88 1009.1
20260509003552 76 0 1.0 5.0 0.00 0.00 0.00 88 1009.3
20260509003054 76 121 0.0 9.0 0.00 0.00 0.00 88 1009.2
20260509002556 76 0 2.0 9.0 0.00 0.00 0.00 87 1009.2
20260509002052 76 122 2.0 7.0 0.00 0.00 0.00 87 1009.3
20260509001554 76 111 3.0 7.0 0.00 0.00 0.00 87 1009.3
20260509001051 77 98 2.0 7.0 0.00 0.00 0.00 86 1009.4
20260509000555 77 94 2.0 9.0 0.00 0.00 0.00 86 1009.4
20260509000106 77 171 2.0 9.0 0.00 0.00 0.00 86 1009.4
20260508235552 77 124 3.0 9.0 0.00 0.00 0.00 85 1009.4
20260508235054 77 120 1.0 6.0 0.00 0.00 0.00 85 1009.4
20260508234556 77 0 2.0 6.0 0.00 0.00 0.00 85 1009.2
20260508234055 78 103 2.0 6.0 0.00 0.00 0.00 85 1009.3
20260508233552 78 117 2.0 6.0 0.00 0.00 0.00 84 1009.4
20260508233108 78 128 1.0 8.0 0.00 0.00 0.00 84 1009.4
20260508232552 78 98 2.0 8.0 0.00 0.00 0.00 84 1009.3
20260508232052 78 138 2.0 8.0 0.00 0.00 0.00 84 1009.3
20260508231556 79 77 2.0 8.0 0.00 0.00 0.00 83 1009.2
20260508231052 79 153 3.0 8.0 0.00 0.00 0.00 83 1009.2
20260508230552 79 120 3.0 7.0 0.00 0.00 0.00 83 1009.2
20260508230053 79 127 2.0 7.0 0.00 0.00 0.00 82 1009.1
20260508225552 79 111 2.0 7.0 0.00 0.00 0.00 82 1009.1
20260508225052 79 69 1.0 6.0 0.00 0.00 0.00 83 1009.2
20260508224553 80 122 1.0 6.0 0.00 0.00 0.00 82 1009.2
20260508224052 80 105 1.0 7.0 0.00 0.00 0.00 82 1009.0
20260508223558 80 142 2.0 7.0 0.00 0.00 0.00 81 1009.2
20260508223058 80 113 1.0 6.0 0.00 0.00 0.00 82 1009.1
20260508222555 80 0 2.0 8.0 0.00 0.00 0.00 82 1009.3
20260508222052 80 92 2.0 9.0 0.00 0.00 0.00 81 1009.4
20260508221554 80 77 4.0 9.0 0.00 0.00 0.00 81 1009.4
20260508221053 80 95 2.0 8.0 0.00 0.00 0.00 81 1009.4
20260508220552 80 111 3.0 8.0 0.00 0.00 0.00 81 1009.4
20260508220058 80 100 2.0 9.0 0.00 0.00 0.00 82 1009.4
20260508215552 80 92 2.0 9.0 0.00 0.00 0.00 81 1009.2
20260508215056 80 56 2.0 9.0 0.00 0.00 0.00 81 1009.4
20260508214556 80 90 4.0 8.0 0.00 0.00 0.00 81 1009.5
20260508214053 80 103 2.0 9.0 0.00 0.00 0.00 81 1009.4
20260508213551 79 130 4.0 9.0 0.00 0.00 0.00 81 1009.5
20260508213054 80 93 3.0 7.0 0.00 0.00 0.00 81 1009.5
20260508212553 80 83 1.0 7.0 0.00 0.00 0.00 81 1009.6
20260508212051 80 123 3.0 7.0 0.00 0.00 0.00 80 1009.7
20260508211558 80 110 1.0 7.0 0.00 0.00 0.00 81 1009.8
20260508211056 79 92 1.0 7.0 0.00 0.00 0.00 81 1009.8
20260508210553 79 137 2.0 7.0 0.00 0.00 0.00 81 1009.9
20260508210056 79 137 1.0 6.0 0.00 0.00 0.00 81 1010.0
20260508205551 79 101 0.0 6.0 0.00 0.00 0.00 81 1010.1
20260508205054 79 114 1.0 7.0 0.00 0.00 0.00 80 1010.0
20260508204556 79 115 3.0 7.0 0.00 0.00 0.00 80 1010.2
20260508204052 79 0 3.0 9.0 0.00 0.00 0.00 80 1010.2
20260508203555 79 124 1.0 9.0 0.00 0.00 0.00 80 1010.3
20260508203059 79 83 4.0 9.0 0.00 0.00 0.00 81 1010.3
20260508202553 79 126 4.0 9.0 0.00 0.00 0.00 81 1010.6
20260508202055 78 0 2.0 7.0 0.00 0.00 0.00 82 1010.6
20260508201555 78 138 2.0 6.0 0.00 0.00 0.00 82 1010.6
20260508201052 77 115 3.0 8.0 0.00 0.00 0.00 82 1010.6
20260508200552 77 101 3.0 8.0 0.00 0.00 0.00 82 1010.7
20260508200109 77 109 2.0 5.0 0.00 0.00 0.00 82 1010.8
20260508195551 77 122 2.0 5.0 0.00 0.00 0.00 82 1010.9
20260508195053 77 77 1.0 6.0 0.00 0.00 0.00 82 1011.0
20260508194556 77 85 2.0 7.0 0.00 0.00 0.00 82 1011.0
20260508194052 77 92 3.0 8.0 0.00 0.00 0.00 82 1011.0
20260508193552 77 94 3.0 8.0 0.00 0.00 0.00 83 1010.9
20260508193150 76 88 2.0 8.0 0.00 0.00 0.00 82 1011.1
20260508192554 76 115 3.0 10.0 0.00 0.00 0.00 84 1011.0